Location: Unspecified
(0.0000°N, 0.0000°E)
Time: 11:05:39
(UTC+00:00)

Cosmos 1867 - Pass Details

Date: 31 October 2025
Orbit: 776 x 797 km, 65.0° (Epoch: 29 March)

Event Time Altitude Azimuth Distance (km) Brightness Sun altitude
Rises 18:00:11 0° 210° (SSW) 3,251 7.5 -4.0°
Reaches altitude 10° 18:02:38 10° 214° (SW) 2,321 6.8 -4.6°
Maximum altitude 18:07:50 55° 291° (WNW) 922 4.3 -5.9°
Drops below altitude 10° 18:13:03 10° 9° (N) 2,319 5.8 -7.1°
Enters shadow 18:19:29 -12° 17° (NNE) 4,769 7.3 -8.7°
